Regional Weather Roundup
Issued by NWS Green Bay, WI

Home | Current Version | Previous Version | Graphics & Text | Print | Product List | Glossary Off
Versions: 1 2 3 4 5 6 7 8 9 10 11 12 13 14 15 16 17 18 19 20 21 22 23 24 25 26 27 28 29 30 31 32 33 34 35 36 37 38 39 40 41 42 43 44 45 46 47 48 49 50

000
ASUS43 KGRB 260010
RWRGRB

NORTH-CENTRAL AND NORTHEAST WISCONSIN REGIONAL WEATHER ROUNDUP
NATIONAL WEATHER SERVICE GREEN BAY WI
600 PM CST SUN JAN 25 2015

WIZ005-009-010>012-018-019-260100-
NORTH CENTRAL WISCONSIN

CITY           SKY/WX    TMP DP  RH WIND       PRES   REMARKS
IRONWOOD       PTCLDY    12   5  73 CALM      30.00R
MANITOWISH WTR CLOUDY    13   5  71 CALM      29.98S
ARBOR VITAE    CLOUDY    17   7  65 CALM      29.98S
EAGLE RIVER    CLOUDY    15   4  62 CALM      29.97S
LAND O LAKES   CLOUDY    13   6  75 CALM      29.99R
RHINELANDER    CLOUDY    17   4  56 CALM      29.98S
PHILLIPS       CLOUDY    15   6  68 CALM      29.99R
ANTIGO         CLOUDY    14   7  72 CALM      29.99S
TOMAHAWK       CLOUDY    16   7  67 CALM      30.00R
MERRILL        CLOUDY    18   7  61 CALM      30.00S
$$

WIZ013-073-260100-
NORTHEAST WISCONSIN

CITY           SKY/WX    TMP DP  RH WIND       PRES   REMARKS
IRON MOUNTAIN  CLEAR     11   4  73 CALM      30.01S
MARINETTE      CLEAR     14   9  79 CALM      30.07R
OCONTO         CLEAR     15   6  69 MISG      30.08S
$$

WIZ017-030-035>037-045-260100-
CENTRAL WISCONSIN

CITY           SKY/WX    TMP DP  RH WIND       PRES   REMARKS
MEDFORD        CLOUDY    17   9  72 S5        29.99R WCI  10
WAUSAU         CLOUDY    16   6  65 CALM      30.00S
MOSINEE        NOT AVBL
MARSHFIELD     CLOUDY    20   9  62 E3        30.01S
WISC RAPIDS    CLOUDY    18   5  57 SE3       30.04F
STEVENS POINT  CLOUDY    13   4  67 CALM      30.03S
WAUPACA        CLEAR     19   8  60 CALM      30.06S
SHAWANO        CLOUDY    19   7  61 CALM      30.06S
CLINTONVILLE   CLOUDY    18   9  68 CALM      30.06R
$$

WIZ038-039-048-051-260100-
FOX VALLEY

CITY           SKY/WX    TMP DP  RH WIND       PRES   REMARKS
NWS GREEN BAY  CLEAR     16   9  74 NE7       30.07R WCI   6
APPLETON       PTCLDY    18   7  62 E6        30.05S WCI   9
OSHKOSH        CLEAR     18  10  71 NE13      30.05R WCI   5
FOND DU LAC    CLEAR     17  10  74 NE13      30.04R WCI   4
$$

WIZ022-050-052-260100-
EAST CENTRAL WISCONSIN

CITY           SKY/WX    TMP DP  RH WIND       PRES   REMARKS
STURGEON BAY   CLEAR     16   3  57 N5        30.08R WCI   9
MANITOWOC      MOCLDY    19  13  77 N6        30.06R
SHEBOYGAN      MOCLDY    20  11  68 N8        30.03R
$$

LMZ563-521-522-541>543-260100-
LAKESHORE

STATION/POSITION TIME  TEMP    WIND        PRES    VSBY  WAVE
                       AIR SEA DIR/SP/G                  HT/PER
                 (UTC) (F)     (DEG/KT/KT) (MB)    (MI)  (FT/S)
SHEBOYGAN LKSHOR 0000   24      20/ 22/ 24 1018.1R
KEWAUNEE LKSHORE 0000   18     340/  8/ 11 1017.1R
NORTHPORT PIER   2300   18      20/  4/  7 1018.3S
SISTER BAY LKSHO 0000   11        CALM       N/A
CHAMBERS ISLAND  0000   12      CALM  /  1 1018.6R
MENOMINEE LKSHOR 0000   16      40/  4/  4 1019.2R
$$



USA.gov is the U.S. government's official web portal to all federal, state and local government web resources and services.